Year,Month,Day,Hour,Minute,Value (Times are PST for temperature in C)
2021,12,01,00,00,11.60
2021,12,01,00,01,11.60
2021,12,01,00,02,11.60
2021,12,01,00,03,11.60
2021,12,01,00,04,11.70
2021,12,01,00,05,11.70
2021,12,01,00,06,11.70
2021,12,01,00,07,11.70
2021,12,01,00,08,11.70
2021,12,01,00,09,11.70
2021,12,01,00,10,11.70
2021,12,01,00,11,11.70
2021,12,01,00,12,11.70
2021,12,01,00,13,11.70
2021,12,01,00,14,11.70
2021,12,01,00,15,11.70
2021,12,01,00,16,11.70
2021,12,01,00,17,11.70
2021,12,01,00,18,11.70
2021,12,01,00,19,11.70
2021,12,01,00,20,11.70
2021,12,01,00,21,11.80
2021,12,01,00,22,11.80
2021,12,01,00,23,11.80
2021,12,01,00,24,11.90
2021,12,01,00,25,11.90
2021,12,01,00,26,12.10
2021,12,01,00,27,12.20
2021,12,01,00,28,12.30
2021,12,01,00,29,12.40
2021,12,01,00,30,12.50
2021,12,01,00,31,12.60
2021,12,01,00,32,12.70
2021,12,01,00,33,12.70
2021,12,01,00,34,12.80
2021,12,01,00,35,12.80
2021,12,01,00,36,12.80
2021,12,01,00,37,12.80
2021,12,01,00,38,12.80
2021,12,01,00,39,12.80
2021,12,01,00,40,12.80
2021,12,01,00,41,12.80
2021,12,01,00,42,12.80
2021,12,01,00,43,12.80
2021,12,01,00,44,12.70
2021,12,01,00,45,12.70
2021,12,01,00,46,12.70
2021,12,01,00,47,12.70
2021,12,01,00,48,12.70
2021,12,01,00,49,12.60
2021,12,01,00,50,12.60
2021,12,01,00,51,12.60
2021,12,01,00,52,12.60
2021,12,01,00,53,12.60
2021,12,01,00,54,12.60
2021,12,01,00,55,12.60
2021,12,01,00,56,12.60
2021,12,01,00,57,12.60
2021,12,01,00,58,12.60
2021,12,01,00,59,12.60
2021,12,01,01,00,12.60
2021,12,01,01,01,12.50
2021,12,01,01,02,12.50
2021,12,01,01,03,12.50
2021,12,01,01,04,12.50
2021,12,01,01,05,12.50
2021,12,01,01,06,12.50
2021,12,01,01,07,12.50
2021,12,01,01,08,12.40
2021,12,01,01,09,12.40
2021,12,01,01,10,12.40
2021,12,01,01,11,12.40
2021,12,01,01,12,12.40
2021,12,01,01,13,12.40
2021,12,01,01,14,12.50
2021,12,01,01,15,12.50
2021,12,01,01,16,12.50
2021,12,01,01,17,12.50
2021,12,01,01,18,12.50
2021,12,01,01,19,12.50
2021,12,01,01,20,12.50
2021,12,01,01,21,12.50
2021,12,01,01,22,12.50
2021,12,01,01,23,12.50
2021,12,01,01,24,12.50
2021,12,01,01,25,12.40
2021,12,01,01,26,12.40
2021,12,01,01,27,12.40
2021,12,01,01,28,12.40
2021,12,01,01,29,12.40
2021,12,01,01,30,12.30
2021,12,01,01,31,12.30
2021,12,01,01,32,12.20
2021,12,01,01,33,12.20
2021,12,01,01,34,12.20
2021,12,01,01,35,12.20
2021,12,01,01,36,12.10
2021,12,01,01,37,12.10
2021,12,01,01,38,12.10
2021,12,01,01,39,12.00
2021,12,01,01,40,12.00
2021,12,01,01,41,11.90
2021,12,01,01,42,11.90
2021,12,01,01,43,11.90
2021,12,01,01,44,11.80
2021,12,01,01,45,11.80
2021,12,01,01,46,11.80
2021,12,01,01,47,11.70
2021,12,01,01,48,11.70
2021,12,01,01,49,11.60
2021,12,01,01,50,11.60
2021,12,01,01,51,11.60
2021,12,01,01,52,11.50
2021,12,01,01,53,11.50
2021,12,01,01,54,11.50
2021,12,01,01,55,11.40
2021,12,01,01,56,11.40
2021,12,01,01,57,11.40
2021,12,01,01,58,11.40
2021,12,01,01,59,11.40
2021,12,01,02,00,11.40
2021,12,01,02,01,11.40
2021,12,01,02,02,11.40
2021,12,01,02,03,11.40
2021,12,01,02,04,11.40
2021,12,01,02,05,11.40
2021,12,01,02,06,11.40
2021,12,01,02,07,11.40
2021,12,01,02,08,11.40
2021,12,01,02,09,11.40
2021,12,01,02,10,11.40
2021,12,01,02,11,11.40
2021,12,01,02,12,11.40
2021,12,01,02,13,11.40
2021,12,01,02,14,11.40
2021,12,01,02,15,11.40
2021,12,01,02,16,11.40
2021,12,01,02,17,11.40
2021,12,01,02,18,11.40
2021,12,01,02,19,11.40
2021,12,01,02,20,11.40
2021,12,01,02,21,11.40
2021,12,01,02,22,11.40
2021,12,01,02,23,11.40
2021,12,01,02,24,11.30
2021,12,01,02,25,11.30
2021,12,01,02,26,11.30
2021,12,01,02,27,11.20
2021,12,01,02,28,11.20
2021,12,01,02,29,11.20
2021,12,01,02,30,11.20
2021,12,01,02,31,11.10
2021,12,01,02,32,11.10
2021,12,01,02,33,11.10
2021,12,01,02,34,11.10
2021,12,01,02,35,11.10
2021,12,01,02,36,11.10
2021,12,01,02,37,11.00
2021,12,01,02,38,11.00
2021,12,01,02,39,11.00
2021,12,01,02,40,11.00
2021,12,01,02,41,11.00
2021,12,01,02,42,11.00
2021,12,01,02,43,11.00
2021,12,01,02,44,11.00
2021,12,01,02,45,11.00
2021,12,01,02,46,11.00
2021,12,01,02,47,11.00
2021,12,01,02,48,11.00
2021,12,01,02,49,11.00
2021,12,01,02,50,11.00
2021,12,01,02,51,11.00
2021,12,01,02,52,11.00
2021,12,01,02,53,11.00
2021,12,01,02,54,11.10
2021,12,01,02,55,11.10
2021,12,01,02,56,11.10
2021,12,01,02,57,11.10
2021,12,01,02,58,11.10
2021,12,01,02,59,11.10
2021,12,01,03,00,11.10
2021,12,01,03,01,11.10
2021,12,01,03,02,11.10
2021,12,01,03,03,11.10
2021,12,01,03,04,11.10
2021,12,01,03,05,11.10
2021,12,01,03,06,11.10
2021,12,01,03,07,11.20
2021,12,01,03,08,11.10
2021,12,01,03,09,11.10
2021,12,01,03,10,11.20
2021,12,01,03,11,11.20
2021,12,01,03,12,11.20
2021,12,01,03,13,11.20
2021,12,01,03,14,11.20
2021,12,01,03,15,11.20
2021,12,01,03,16,11.20
2021,12,01,03,17,11.20
2021,12,01,03,18,11.20
2021,12,01,03,19,11.20
2021,12,01,03,20,11.20
2021,12,01,03,21,11.20
2021,12,01,03,22,11.20
2021,12,01,03,23,11.10
2021,12,01,03,24,11.10
2021,12,01,03,25,11.10
2021,12,01,03,26,11.10
2021,12,01,03,27,11.10
2021,12,01,03,28,11.10
2021,12,01,03,29,11.00
2021,12,01,03,30,11.00
2021,12,01,03,31,11.00
2021,12,01,03,32,11.00
2021,12,01,03,33,11.10
2021,12,01,03,34,11.10
2021,12,01,03,35,11.10
2021,12,01,03,36,11.10
2021,12,01,03,37,11.10
2021,12,01,03,38,11.10
2021,12,01,03,39,11.00
2021,12,01,03,40,11.10
2021,12,01,03,41,11.10
2021,12,01,03,42,11.10
2021,12,01,03,43,11.10
2021,12,01,03,44,11.10
2021,12,01,03,45,11.10
2021,12,01,03,46,11.10
2021,12,01,03,47,11.10
2021,12,01,03,48,11.10
2021,12,01,03,49,11.10
2021,12,01,03,50,11.20
2021,12,01,03,51,11.20
2021,12,01,03,52,11.20
2021,12,01,03,53,11.20
2021,12,01,03,54,11.20
2021,12,01,03,55,11.20
2021,12,01,03,56,11.20
2021,12,01,03,57,11.20
2021,12,01,03,58,11.30
2021,12,01,03,59,11.30
2021,12,01,04,00,11.30
2021,12,01,04,01,11.30
2021,12,01,04,02,11.30
2021,12,01,04,03,11.30
2021,12,01,04,04,11.20
2021,12,01,04,05,11.20
2021,12,01,04,06,11.20
2021,12,01,04,07,11.20
2021,12,01,04,08,11.20
2021,12,01,04,09,11.20
2021,12,01,04,10,11.10
2021,12,01,04,11,11.10
2021,12,01,04,12,11.10
2021,12,01,04,13,11.10
2021,12,01,04,14,11.10
2021,12,01,04,15,11.10
2021,12,01,04,16,11.10
2021,12,01,04,17,11.10
2021,12,01,04,18,11.10
2021,12,01,04,19,11.00
2021,12,01,04,20,11.00
2021,12,01,04,21,11.00
2021,12,01,04,22,11.00
2021,12,01,04,23,11.00
2021,12,01,04,24,11.00
2021,12,01,04,25,11.00
2021,12,01,04,26,11.00
2021,12,01,04,27,11.00
2021,12,01,04,28,11.00
2021,12,01,04,29,11.00
2021,12,01,04,30,11.00
2021,12,01,04,31,11.00
2021,12,01,04,32,11.10
2021,12,01,04,33,11.10
2021,12,01,04,34,11.10
2021,12,01,04,35,11.10
2021,12,01,04,36,11.10
2021,12,01,04,37,11.10
2021,12,01,04,38,11.10
2021,12,01,04,39,11.00
2021,12,01,04,40,11.00
2021,12,01,04,41,11.00
2021,12,01,04,42,11.00
2021,12,01,04,43,11.00
2021,12,01,04,44,11.00
2021,12,01,04,45,11.00
2021,12,01,04,46,11.00
2021,12,01,04,47,11.00
2021,12,01,04,48,11.00
2021,12,01,04,49,11.00
2021,12,01,04,50,11.00
2021,12,01,04,51,11.00
2021,12,01,04,52,11.00
2021,12,01,04,53,11.00
2021,12,01,04,54,11.00
2021,12,01,04,55,11.00
2021,12,01,04,56,11.10
2021,12,01,04,57,11.10
2021,12,01,04,58,11.00
2021,12,01,04,59,11.10
2021,12,01,05,00,11.00
2021,12,01,05,01,11.00
2021,12,01,05,02,11.00
2021,12,01,05,03,11.00
2021,12,01,05,04,11.00
2021,12,01,05,05,11.00
2021,12,01,05,06,10.90
2021,12,01,05,07,10.90
2021,12,01,05,08,10.90
2021,12,01,05,09,10.90
2021,12,01,05,10,10.90
2021,12,01,05,11,10.80
2021,12,01,05,12,10.80
2021,12,01,05,13,10.80
2021,12,01,05,14,10.80
2021,12,01,05,15,10.80
2021,12,01,05,16,10.80
2021,12,01,05,17,10.80
2021,12,01,05,18,10.80
2021,12,01,05,19,10.80
2021,12,01,05,20,10.70
2021,12,01,05,21,10.70
2021,12,01,05,22,10.70
2021,12,01,05,23,10.80
2021,12,01,05,24,10.80
2021,12,01,05,25,10.80
2021,12,01,05,26,10.80
2021,12,01,05,27,10.80
2021,12,01,05,28,10.80
2021,12,01,05,29,10.80
2021,12,01,05,30,10.90
2021,12,01,05,31,10.90
2021,12,01,05,32,10.90
2021,12,01,05,33,10.90
2021,12,01,05,34,10.90
2021,12,01,05,35,10.90
2021,12,01,05,36,10.90
2021,12,01,05,37,10.90
2021,12,01,05,38,11.00
2021,12,01,05,39,11.00
2021,12,01,05,40,11.00
2021,12,01,05,41,11.10
2021,12,01,05,42,11.10
2021,12,01,05,43,11.10
2021,12,01,05,44,11.10
2021,12,01,05,45,11.10
2021,12,01,05,46,11.10
2021,12,01,05,47,11.10
2021,12,01,05,48,11.10
2021,12,01,05,49,11.10
2021,12,01,05,50,11.10
2021,12,01,05,51,11.10
2021,12,01,05,52,11.10
2021,12,01,05,53,11.10
2021,12,01,05,54,11.10
2021,12,01,05,55,11.10
2021,12,01,05,56,11.10
2021,12,01,05,57,11.10
2021,12,01,05,58,11.10
2021,12,01,05,59,11.10
2021,12,01,06,00,11.10
2021,12,01,06,01,11.10
2021,12,01,06,02,11.10
2021,12,01,06,03,11.10
2021,12,01,06,04,11.10
2021,12,01,06,05,11.10
2021,12,01,06,06,11.10
2021,12,01,06,07,11.20
2021,12,01,06,08,11.20
2021,12,01,06,09,11.20
2021,12,01,06,10,11.20
2021,12,01,06,11,11.20
2021,12,01,06,12,11.20
2021,12,01,06,13,11.20
2021,12,01,06,14,11.30
2021,12,01,06,15,11.30
2021,12,01,06,16,11.30
2021,12,01,06,17,11.30
2021,12,01,06,18,11.30
2021,12,01,06,19,11.30
2021,12,01,06,20,11.30
2021,12,01,06,21,11.30
2021,12,01,06,22,11.30
2021,12,01,06,23,11.30
2021,12,01,06,24,11.30
2021,12,01,06,25,11.30
2021,12,01,06,26,11.30
2021,12,01,06,27,11.30
2021,12,01,06,28,11.30
2021,12,01,06,29,11.30
2021,12,01,06,30,11.30
2021,12,01,06,31,11.30
2021,12,01,06,32,11.30
2021,12,01,06,33,11.30
2021,12,01,06,34,11.30
2021,12,01,06,35,11.30
2021,12,01,06,36,11.30
2021,12,01,06,37,11.30
2021,12,01,06,38,11.30
2021,12,01,06,39,11.40
2021,12,01,06,40,11.40
2021,12,01,06,41,11.50
2021,12,01,06,42,11.50
2021,12,01,06,43,11.50
2021,12,01,06,44,11.60
2021,12,01,06,45,11.60
2021,12,01,06,46,11.60
2021,12,01,06,47,11.60
2021,12,01,06,48,11.60
2021,12,01,06,49,11.60
2021,12,01,06,50,11.60
2021,12,01,06,51,11.60
2021,12,01,06,52,11.60
2021,12,01,06,53,11.60
2021,12,01,06,54,11.60
2021,12,01,06,55,11.60
2021,12,01,06,56,11.60
2021,12,01,06,57,11.60
2021,12,01,06,58,11.60
2021,12,01,06,59,11.60
2021,12,01,07,00,11.60
2021,12,01,07,01,11.60
2021,12,01,07,02,11.70
2021,12,01,07,03,11.70
2021,12,01,07,04,11.70
2021,12,01,07,05,11.60
2021,12,01,07,06,11.60
2021,12,01,07,07,11.60
2021,12,01,07,08,11.60
2021,12,01,07,09,11.60
2021,12,01,07,10,11.60
2021,12,01,07,11,11.60
2021,12,01,07,12,11.60
2021,12,01,07,13,11.60
2021,12,01,07,14,11.60
2021,12,01,07,15,11.50
2021,12,01,07,16,11.50
2021,12,01,07,17,11.50
2021,12,01,07,18,11.50
2021,12,01,07,19,11.50
2021,12,01,07,20,11.50
2021,12,01,07,21,11.50
2021,12,01,07,22,11.40
2021,12,01,07,23,11.40
2021,12,01,07,24,11.40
2021,12,01,07,25,11.30
2021,12,01,07,26,11.30
2021,12,01,07,27,11.30
2021,12,01,07,28,11.30
2021,12,01,07,29,11.30
2021,12,01,07,30,11.30
2021,12,01,07,31,11.30
2021,12,01,07,32,11.30
2021,12,01,07,33,11.30
2021,12,01,07,34,11.30
2021,12,01,07,35,11.30
2021,12,01,07,36,11.20
2021,12,01,07,37,11.20
2021,12,01,07,38,11.20
2021,12,01,07,39,11.20
2021,12,01,07,40,11.20
2021,12,01,07,41,11.20
2021,12,01,07,42,11.20
2021,12,01,07,43,11.20
2021,12,01,07,44,11.20
2021,12,01,07,45,11.20
2021,12,01,07,46,11.30
2021,12,01,07,47,11.30
2021,12,01,07,48,11.30
2021,12,01,07,49,11.30
2021,12,01,07,50,11.30
2021,12,01,07,51,11.30
2021,12,01,07,52,11.30
2021,12,01,07,53,11.30
2021,12,01,07,54,11.30
2021,12,01,07,55,11.30
2021,12,01,07,56,11.30
2021,12,01,07,57,11.30
2021,12,01,07,58,11.30
2021,12,01,07,59,11.30
2021,12,01,08,00,11.30
2021,12,01,08,01,11.30
2021,12,01,08,02,11.30
2021,12,01,08,03,11.30
2021,12,01,08,04,11.30
2021,12,01,08,05,11.40
2021,12,01,08,06,11.40
2021,12,01,08,07,11.40
2021,12,01,08,08,11.30
2021,12,01,08,09,11.40
2021,12,01,08,10,11.40
2021,12,01,08,11,11.30
2021,12,01,08,12,11.40
2021,12,01,08,13,11.40
2021,12,01,08,14,11.40
2021,12,01,08,15,11.40
2021,12,01,08,16,11.40
2021,12,01,08,17,11.40
2021,12,01,08,18,11.50
2021,12,01,08,19,11.40
2021,12,01,08,20,11.50
2021,12,01,08,21,11.50
2021,12,01,08,22,11.50
2021,12,01,08,23,11.50
2021,12,01,08,24,11.50
2021,12,01,08,25,11.50
2021,12,01,08,26,11.60
2021,12,01,08,27,11.60
2021,12,01,08,28,11.60
2021,12,01,08,29,11.60
2021,12,01,08,30,11.60
2021,12,01,08,31,11.50
2021,12,01,08,32,11.50
2021,12,01,08,33,11.50
2021,12,01,08,34,11.50
2021,12,01,08,35,11.50
2021,12,01,08,36,11.50
2021,12,01,08,37,11.50
2021,12,01,08,38,11.40
2021,12,01,08,39,11.40
2021,12,01,08,40,11.40
2021,12,01,08,41,11.40
2021,12,01,08,42,11.40
2021,12,01,08,43,11.40
2021,12,01,08,44,11.40
2021,12,01,08,45,11.40
2021,12,01,08,46,11.40
2021,12,01,08,47,11.40
2021,12,01,08,48,11.40
2021,12,01,08,49,11.40
2021,12,01,08,50,11.40
2021,12,01,08,51,11.40
2021,12,01,08,52,11.40
2021,12,01,14,13,12.40
2021,12,01,14,14,12.40
2021,12,01,14,15,12.40
2021,12,01,14,16,12.40
2021,12,01,14,17,12.40
2021,12,01,14,18,12.50
2021,12,01,14,19,12.50
2021,12,01,14,20,12.50
2021,12,01,14,21,12.50
2021,12,01,14,22,12.60
2021,12,01,14,23,12.60
2021,12,01,14,24,12.60
2021,12,01,14,25,12.60
2021,12,01,14,26,12.60
2021,12,01,14,27,12.60
2021,12,01,14,28,12.60
2021,12,01,14,29,12.60
2021,12,01,14,30,12.60
2021,12,01,14,31,12.60
2021,12,01,14,32,12.60
2021,12,01,14,33,12.60
2021,12,01,14,34,12.60
2021,12,01,14,35,12.60
2021,12,01,14,36,12.60
2021,12,01,14,37,12.60
2021,12,01,14,38,12.60
2021,12,01,14,39,12.60
2021,12,01,14,40,12.60
2021,12,01,14,41,12.60
2021,12,01,14,42,12.60
2021,12,01,14,43,12.60
2021,12,01,14,44,12.70
2021,12,01,14,45,12.70
2021,12,01,14,46,12.70
2021,12,01,14,47,12.70
2021,12,01,14,48,12.70
2021,12,01,14,49,12.70
2021,12,01,14,50,12.70
2021,12,01,14,51,12.70
2021,12,01,14,52,12.70
2021,12,01,14,53,12.70
2021,12,01,14,54,12.70
2021,12,01,14,55,12.70
2021,12,01,14,56,12.70
2021,12,01,14,57,12.70
2021,12,01,14,58,12.70
2021,12,01,14,59,12.60
2021,12,01,15,00,12.70
2021,12,01,15,01,12.60
2021,12,01,15,02,12.60
2021,12,01,15,03,12.60
2021,12,01,15,04,12.60
2021,12,01,15,05,12.60
2021,12,01,15,06,12.60
2021,12,01,15,07,12.60
2021,12,01,15,08,12.60
2021,12,01,15,09,12.60
2021,12,01,15,10,12.50
2021,12,01,15,11,12.50
2021,12,01,15,12,12.50
2021,12,01,15,13,12.50
2021,12,01,15,14,12.50
2021,12,01,15,15,12.50
2021,12,01,15,16,12.50
2021,12,01,15,17,12.40
2021,12,01,15,18,12.40
2021,12,01,15,19,12.40
2021,12,01,15,20,12.40
2021,12,01,15,21,12.40
2021,12,01,15,22,12.40
2021,12,01,15,23,12.30
2021,12,01,15,24,12.30
2021,12,01,15,25,12.30
2021,12,01,15,26,12.30
2021,12,01,15,27,12.30
2021,12,01,15,28,12.20
2021,12,01,15,29,12.20
2021,12,01,15,30,12.20
2021,12,01,15,31,12.20
2021,12,01,15,32,12.20
2021,12,01,15,33,12.20
2021,12,01,15,34,12.20
2021,12,01,15,35,12.20
2021,12,01,15,36,12.20
2021,12,01,15,37,12.20
2021,12,01,15,38,12.20
2021,12,01,15,39,12.20
2021,12,01,15,40,12.20
2021,12,01,15,41,12.20
2021,12,01,15,42,12.20
2021,12,01,15,43,12.20
2021,12,01,15,44,12.10
2021,12,01,15,45,12.10
2021,12,01,15,46,12.10
2021,12,01,15,47,12.10
2021,12,01,15,48,12.10
2021,12,01,15,49,12.10
2021,12,01,15,50,12.10
2021,12,01,15,51,12.10
2021,12,01,15,52,12.10
2021,12,01,15,53,12.10
2021,12,01,15,54,12.10
2021,12,01,15,55,12.10
2021,12,01,15,56,12.10
2021,12,01,15,57,12.20
2021,12,01,15,58,12.20
2021,12,01,15,59,12.20
2021,12,01,16,00,12.20
2021,12,01,16,01,12.20
2021,12,01,16,02,12.30
2021,12,01,16,03,12.30
2021,12,01,16,04,12.30
2021,12,01,16,05,12.30
2021,12,01,16,06,12.30
2021,12,01,16,07,12.30
2021,12,01,16,08,12.30
2021,12,01,16,09,12.30
2021,12,01,16,10,12.30
2021,12,01,16,11,12.30
2021,12,01,16,12,12.30
2021,12,01,16,13,12.30
2021,12,01,16,14,12.30
2021,12,01,16,15,12.30
2021,12,01,16,16,12.30
2021,12,01,16,17,12.30
2021,12,01,16,18,12.30
2021,12,01,16,19,12.40
2021,12,01,16,20,12.40
2021,12,01,16,21,12.50
2021,12,01,16,22,12.60
2021,12,01,16,23,12.60
2021,12,01,16,24,12.70
2021,12,01,16,25,12.80
2021,12,01,16,26,13.00
2021,12,01,16,27,13.10
2021,12,01,16,28,13.20
2021,12,01,16,29,13.20
2021,12,01,16,30,13.30
2021,12,01,16,31,13.30
2021,12,01,16,32,13.30
2021,12,01,16,33,13.30
2021,12,01,16,34,13.30
2021,12,01,16,35,13.30
2021,12,01,16,36,13.30
2021,12,01,16,37,13.40
2021,12,01,16,38,13.40
2021,12,01,16,39,13.40
2021,12,01,16,40,13.40
2021,12,01,16,41,13.40
2021,12,01,16,42,13.50
2021,12,01,16,43,13.40
2021,12,01,16,44,13.40
2021,12,01,16,45,13.40
2021,12,01,16,46,13.40
2021,12,01,16,47,13.40
2021,12,01,16,48,13.40
2021,12,01,16,49,13.40
2021,12,01,16,50,13.40
2021,12,01,16,51,13.40
2021,12,01,16,52,13.40
2021,12,01,16,53,13.40
2021,12,01,16,54,13.40
2021,12,01,16,55,13.40
2021,12,01,16,56,13.50
2021,12,01,16,57,13.50
2021,12,01,16,58,13.50
2021,12,01,16,59,13.50
2021,12,01,17,00,13.50
2021,12,01,17,01,13.50
2021,12,01,17,02,13.60
2021,12,01,17,03,13.60
2021,12,01,17,04,13.60
2021,12,01,17,05,13.60
2021,12,01,17,06,13.50
2021,12,01,17,07,13.50
2021,12,01,17,08,13.50
2021,12,01,17,09,13.50
2021,12,01,17,10,13.50
2021,12,01,17,11,13.50
2021,12,01,17,12,13.50
2021,12,01,17,13,13.50
2021,12,01,17,14,13.50
2021,12,01,17,15,13.50
2021,12,01,17,16,13.50
2021,12,01,17,17,13.50
2021,12,01,17,18,13.50
2021,12,01,17,19,13.50
2021,12,01,17,20,13.50
2021,12,01,17,21,13.50
2021,12,01,17,22,13.50
2021,12,01,17,23,13.50
2021,12,01,17,24,13.50
2021,12,01,17,25,13.50
2021,12,01,17,26,13.50
2021,12,01,17,27,13.40
2021,12,01,17,28,13.40
2021,12,01,17,29,13.40
2021,12,01,17,30,13.40
2021,12,01,17,31,13.40
2021,12,01,17,32,13.40
2021,12,01,17,33,13.40
2021,12,01,17,34,13.40
2021,12,01,17,35,13.40
2021,12,01,17,36,13.30
2021,12,01,17,37,13.30
2021,12,01,17,38,13.30
2021,12,01,17,39,13.30
2021,12,01,17,40,13.30
2021,12,01,17,41,13.30
2021,12,01,17,42,13.30
2021,12,01,17,43,13.30
2021,12,01,17,44,13.30
2021,12,01,17,45,13.50
2021,12,01,17,46,13.50
2021,12,01,17,47,13.60
2021,12,01,17,48,13.60
2021,12,01,17,49,13.60
2021,12,01,17,50,13.60
2021,12,01,17,51,13.60
2021,12,01,17,52,13.60
2021,12,01,17,53,13.60
2021,12,01,17,54,13.60
2021,12,01,17,55,13.60
2021,12,01,17,56,13.60
2021,12,01,17,57,13.60
2021,12,01,17,58,13.70
2021,12,01,17,59,13.70
2021,12,01,18,00,13.70
2021,12,01,18,01,13.80
2021,12,01,18,02,13.80
2021,12,01,18,03,13.80
2021,12,01,18,04,13.80
2021,12,01,18,05,13.80
2021,12,01,18,06,13.80
2021,12,01,18,07,13.80
2021,12,01,18,08,13.80
2021,12,01,18,09,13.80
2021,12,01,18,10,13.80
2021,12,01,18,11,13.80
2021,12,01,18,12,13.70
2021,12,01,18,13,13.70
2021,12,01,18,14,13.70
2021,12,01,18,15,13.60
2021,12,01,18,16,13.60
2021,12,01,18,17,13.60
2021,12,01,18,18,13.60
2021,12,01,18,19,13.60
2021,12,01,18,20,13.60
2021,12,01,18,21,13.60
2021,12,01,18,22,13.60
2021,12,01,18,23,13.60
2021,12,01,18,24,13.60
2021,12,01,18,25,13.60
2021,12,01,18,26,13.50
2021,12,01,18,27,13.60
2021,12,01,18,28,13.60
2021,12,01,18,29,13.60
2021,12,01,18,30,13.60
2021,12,01,18,31,13.60
2021,12,01,18,32,13.60
2021,12,01,18,33,13.60
2021,12,01,18,34,13.50
2021,12,01,18,35,13.40
2021,12,01,18,36,13.40
2021,12,01,18,37,13.30
2021,12,01,18,38,13.20
2021,12,01,18,39,13.10
2021,12,01,18,40,12.90
2021,12,01,18,41,12.90
2021,12,01,18,42,12.80
2021,12,01,18,43,12.70
2021,12,01,18,44,12.70
2021,12,01,18,45,12.70
2021,12,01,18,46,12.60
2021,12,01,18,47,12.60
2021,12,01,18,48,12.60
2021,12,01,18,49,12.60
2021,12,01,18,50,12.60
2021,12,01,18,51,12.60
2021,12,01,18,52,12.60
2021,12,01,18,53,12.60
2021,12,01,18,54,12.60
2021,12,01,18,55,12.70
2021,12,01,18,56,12.70
2021,12,01,18,57,12.70
2021,12,01,18,58,12.70
2021,12,01,18,59,12.70
2021,12,01,19,00,12.80
2021,12,01,19,01,12.80
2021,12,01,19,02,12.80
2021,12,01,19,03,12.80
2021,12,01,19,04,12.80
2021,12,01,19,05,12.80
2021,12,01,19,06,12.80
2021,12,01,19,07,12.80
2021,12,01,19,08,12.80
2021,12,01,19,09,12.80
2021,12,01,19,10,12.80
2021,12,01,19,11,12.80
2021,12,01,19,12,12.80
2021,12,01,19,13,12.80
2021,12,01,19,14,12.70
2021,12,01,19,15,12.70
2021,12,01,19,16,12.70
2021,12,01,19,17,12.70
2021,12,01,19,18,12.60
2021,12,01,19,19,12.60
2021,12,01,19,20,12.60
2021,12,01,19,21,12.60
2021,12,01,19,22,12.60
2021,12,01,19,23,12.50
2021,12,01,19,24,12.50
2021,12,01,19,25,12.50
2021,12,01,19,26,12.40
2021,12,01,19,27,12.40
2021,12,01,19,28,12.40
2021,12,01,19,29,12.40
2021,12,01,19,30,12.40
2021,12,01,19,31,12.40
2021,12,01,19,32,12.40
2021,12,01,19,33,12.40
2021,12,01,19,34,12.40
2021,12,01,19,35,12.40
2021,12,01,19,36,12.40
2021,12,01,19,37,12.40
2021,12,01,19,38,12.40
2021,12,01,19,39,12.40
2021,12,01,19,40,12.40
2021,12,01,19,41,12.40
2021,12,01,19,42,12.40
2021,12,01,19,43,12.40
2021,12,01,19,44,12.40
2021,12,01,19,45,12.40
2021,12,01,19,46,12.30
2021,12,01,19,47,12.30
2021,12,01,19,48,12.30
2021,12,01,19,49,12.30
2021,12,01,19,50,12.30
2021,12,01,19,51,12.30
2021,12,01,19,52,12.30
2021,12,01,19,53,12.30
2021,12,01,19,54,12.30
2021,12,01,19,55,12.30
2021,12,01,19,56,12.30
2021,12,01,19,57,12.30
2021,12,01,19,58,12.30
2021,12,01,19,59,12.30
2021,12,01,20,00,12.30
2021,12,01,20,01,12.30
2021,12,01,20,02,12.30
2021,12,01,20,03,12.30
2021,12,01,20,04,12.30
2021,12,01,20,05,12.20
2021,12,01,20,06,12.20
2021,12,01,20,07,12.10
2021,12,01,20,08,12.10
2021,12,01,20,09,12.10
2021,12,01,20,10,12.00
2021,12,01,20,11,11.90
2021,12,01,20,12,11.90
2021,12,01,20,13,11.90
2021,12,01,20,14,11.80
2021,12,01,20,15,11.80
2021,12,01,20,16,11.80
2021,12,01,20,17,11.70
2021,12,01,20,18,11.70
2021,12,01,20,19,11.70
2021,12,01,20,20,11.80
2021,12,01,20,21,11.80
2021,12,01,20,22,11.80
2021,12,01,20,23,11.80
2021,12,01,20,24,11.80
2021,12,01,20,25,11.80
2021,12,01,20,26,11.80
2021,12,01,20,27,11.80
2021,12,01,20,28,11.80
2021,12,01,20,29,11.90
2021,12,01,20,30,11.90
2021,12,01,20,31,11.90
2021,12,01,20,32,12.00
2021,12,01,20,33,12.10
2021,12,01,20,34,12.20
2021,12,01,20,35,12.20
2021,12,01,20,36,12.30
2021,12,01,20,37,12.40
2021,12,01,20,38,12.40
2021,12,01,20,39,12.40
2021,12,01,20,40,12.50
2021,12,01,20,41,12.50
2021,12,01,20,42,12.50
2021,12,01,20,43,12.50
2021,12,01,20,44,12.60
2021,12,01,20,45,12.60
2021,12,01,20,46,12.70
2021,12,01,20,47,12.70
2021,12,01,20,48,12.70
2021,12,01,20,49,12.70
2021,12,01,20,50,12.70
2021,12,01,20,51,12.80
2021,12,01,20,52,12.80
2021,12,01,20,53,12.70
2021,12,01,20,54,12.70
2021,12,01,20,55,12.70
2021,12,01,20,56,12.70
2021,12,01,20,57,12.80
2021,12,01,20,58,12.80
2021,12,01,20,59,12.80
2021,12,01,21,00,12.80
2021,12,01,21,01,12.80
2021,12,01,21,02,12.80
2021,12,01,21,03,12.80
2021,12,01,21,04,12.80
2021,12,01,21,05,12.80
2021,12,01,21,06,12.80
2021,12,01,21,07,12.80
2021,12,01,21,08,12.80
2021,12,01,21,09,12.80
2021,12,01,21,10,12.80
2021,12,01,21,11,12.80
2021,12,01,21,12,12.90
2021,12,01,21,13,12.90
2021,12,01,21,14,12.90
2021,12,01,21,15,12.90
2021,12,01,21,16,12.90
2021,12,01,21,17,12.90
2021,12,01,21,18,12.90
2021,12,01,21,19,12.90
2021,12,01,21,20,12.90
2021,12,01,21,21,12.90
2021,12,01,21,22,13.00
2021,12,01,21,23,12.90
2021,12,01,21,24,12.90
2021,12,01,21,25,12.90
2021,12,01,21,26,12.90
2021,12,01,21,27,12.90
2021,12,01,21,28,12.90
2021,12,01,21,29,12.90
2021,12,01,21,30,12.80
2021,12,01,21,31,12.80
2021,12,01,21,32,12.80
2021,12,01,21,33,12.80
2021,12,01,21,34,12.80
2021,12,01,21,35,12.70
2021,12,01,21,36,12.70
2021,12,01,21,37,12.70
2021,12,01,21,38,12.70
2021,12,01,21,39,12.70
2021,12,01,21,40,12.70
2021,12,01,21,41,12.70
2021,12,01,21,42,12.70
2021,12,01,21,43,12.70
2021,12,01,21,44,12.70
2021,12,01,21,45,12.70
2021,12,01,21,46,12.70
2021,12,01,21,47,12.70
2021,12,01,21,48,12.70
2021,12,01,21,49,12.60
2021,12,01,21,50,12.60
2021,12,01,21,51,12.60
2021,12,01,21,52,12.60
2021,12,01,21,53,12.60
2021,12,01,21,54,12.60
2021,12,01,21,55,12.60
2021,12,01,21,56,12.60
2021,12,01,21,57,12.50
2021,12,01,21,58,12.50
2021,12,01,21,59,12.50
2021,12,01,22,00,12.40
2021,12,01,22,01,12.40
2021,12,01,22,02,12.40
2021,12,01,22,03,12.30
2021,12,01,22,04,12.20
2021,12,01,22,05,12.20
2021,12,01,22,06,12.10
2021,12,01,22,07,12.00
2021,12,01,22,08,12.00
2021,12,01,22,09,11.90
2021,12,01,22,10,11.90
2021,12,01,22,11,11.80
2021,12,01,22,12,11.80
2021,12,01,22,13,11.80
2021,12,01,22,14,11.80
2021,12,01,22,15,11.80
2021,12,01,22,16,11.80
2021,12,01,22,17,11.70
2021,12,01,22,18,11.80
2021,12,01,22,19,11.70
2021,12,01,22,20,11.70
2021,12,01,22,21,11.70
2021,12,01,22,22,11.70
2021,12,01,22,23,11.70
2021,12,01,22,24,11.80
2021,12,01,22,25,11.80
2021,12,01,22,26,11.80
2021,12,01,22,27,11.80
2021,12,01,22,28,11.80
2021,12,01,22,29,11.80
2021,12,01,22,30,11.80
2021,12,01,22,31,11.80
2021,12,01,22,32,11.80
2021,12,01,22,33,11.80
2021,12,01,22,34,11.80
2021,12,01,22,35,11.80
2021,12,01,22,36,11.80
2021,12,01,22,37,11.80
2021,12,01,22,38,11.80
2021,12,01,22,39,11.80